Location: Bessat
(45.8735°N, 1.9924°E)
Time: 07:58:48
(UTC+00:00)

Cosmos 1833 Rocket - Pass Details

Date: 11 May 2021
Orbit: 831 x 841 km, 71.0° (Epoch: 20 June)

Event Time Altitude Azimuth Distance (km) Brightness Sun altitude
Rises 20:55:45 0° 334° (NNW) 3,406 7.4 -15.0°
Reaches altitude 10° 20:58:13 10° 335° (NNW) 2,468 6.3 -15.3°
Maximum altitude 21:03:54 84° 64° (ENE) 852 2.7 -16.0°
Enters shadow 21:07:15 26° 151° (SSE) 1,611 3.6 -16.4°
